Flag for U.S.A. Weather past 2 weeks in Oxnard, California, U.S.A.

Now
61 °F

Sunny.


Feels Like: 61 °F
Forecast: 54 / 69 °F
Wind: No wind

Location: Oxnard Airport


UV Index: 5 (Moderate)

Visibility: 7 mi


Pressure: 30.06 "Hg

Humidity: 78%

Dew point: 54 °F

Location of OxnardLocation

Historic Weather in Oxnard

°F

Oxnard temperature yesterday

Maximum temperature yesterday: 65 °F (at 12:51 PM)
Minimum temperature yesterday: 52 °F (at 4:51 AM)
Average temperature yesterday: 59 °F

Past Weeks' High & Low Weather Summary

 TemperatureHumidityPressure
High75 °F (Apr 7, 2:51 PM)100% (Apr 9, 1:51 AM)30.11 "Hg (Apr 9, 1:51 AM)
Low48 °F (Apr 10, 6:51 AM)31% (Apr 7, 8:51 AM)29.79 "Hg (Apr 16, 6:51 PM)
Average58 °F76%29.97 "Hg
* Reported Apr 5 7:51 AM — Apr 20 7:51 AM, Oxnard, Weather by CustomWeather, © 2014

Note: Actual official high and low records may vary slightly from our data, if they occured in-between our weather recording intervals... More about our weather records

Advertising

Historic Weather Conditions — Data for Previous 24 hours

 ConditionsComfort  
Time TempWeatherWind HumidityBarometerVisibility
7:51 AM
Apr 20
57 °FFog.No wind87%30.06 "Hg5 mi
6:51 AM53 °FClear.No wind86%30.04 "Hg7 mi
5:51 AM54 °FClear.No wind83%30.02 "Hg9 mi
4:51 AM54 °FClear.3 mph86%30.01 "Hg8 mi
3:51 AM55 °FClear.3 mph87%30.02 "Hg8 mi
2:51 AM55 °FClear.3 mph87%30.02 "Hg7 mi
1:51 AM57 °FClear.No wind87%30.03 "Hg8 mi
12:51 AM57 °FClear.No wind83%30.03 "Hg8 mi
11:51 PM
Apr 19
58 °FClear.No wind81%30.02 "Hg8 mi
10:51 PM58 °FClear.No wind84%30.01 "Hg8 mi
9:51 PM58 °FClear.No wind84%30.00 "Hg8 mi
8:51 PM57 °FClear.6 mph87%30.00 "Hg8 mi
7:51 PM58 °FSunny.6 mph81%29.98 "Hg8 mi
6:51 PM60 °FSunny.5 mph78%29.98 "Hg7 mi
5:51 PM61 °FSunny.7 mph75%29.99 "Hg8 mi
4:51 PM63 °FSunny.13 mph70%30.00 "Hg10 mi
3:51 PM65 °FSunny.12 mph63%29.99 "Hg10 mi
2:51 PM64 °FSunny.13 mph63%30.00 "Hg10 mi
1:51 PM64 °FSunny.10 mph68%30.00 "Hg10 mi
12:51 PM65 °FSunny.12 mph68%30.01 "Hg10 mi
11:51 AM64 °FSunny.13 mph68%30.02 "Hg10 mi
10:51 AM63 °FSunny.10 mph68%30.02 "Hg10 mi
9:51 AM62 °FSunny.9 mph67%30.01 "Hg10 mi
Weather by CustomWeather, © 2014

See weather overview